{"data":{"norad_id":68276,"epoch":"2026-09-20T01:34:51.079872Z","epoch_age_seconds":89638,"freshness":"FRESH","line1":"1 68276U 26055Q   26263.06586898  .00015378  00000+0  46523-3 0  9992","line2":"2 68276  53.1570 131.9473 0001348  90.6961 269.4196 15.34406916 29756","mean_motion":15.34406916,"eccentricity":0.0001348,"inclination_deg":53.157,"raan_deg":131.9473,"arg_perigee_deg":90.6961,"mean_anomaly_deg":269.4196,"bstar":0.00046523,"rev_number":2975,"period_min":93.84733508331,"perigee_km":461.76054198137,"apogee_km":463.6048269683,"semimajor_km":6840.8196844748,"source":"CELESTRAK","updated_at":"2026-09-20T09:00:43.848792Z"}}